Starlink 31501

operational
NORAD ID: 59359 Int'l Des: 2024-060 Owner: SPXS Country: US Constellation: starlink
LEOCIRCULAR

About Starlink 31501

Description loading...

Live Position

Loading 3D Globe...

Upcoming Passes

Altitude History

Altitude vs Time

uPlot chart will show altitude changes over time

Two-Line Element Set

1 59359U 24060M 25351.39163044 .00000621 00000-0 32088-4 0 9993
2 59359 43.0012 4.8747 0001364 273.9183 86.1512 15.27589930 97479
Epoch: Dec 17, 2025 • Age: 26 hours

Current Status

Altitude 485.3 km
Velocity 7.63 km/s
Sub-Earth Point 34.83°N, 122.05°W
Launch Date Mar 31, 2024
Age 1.7 years
Type internet

Technical Details

Classification Payload
Mass 730.00 kg
Dry Mass 700.00 kg
Total Mass 730.00 kg
Length 0.30 m
Diameter 4.10 m
Span 29.00 m
Shape Box + pan
Manufacturer SPXS
Bus Type Starlink V2M
Phase Status In Orbit
Owner/State SPXS/US

Large Constellations

Loading constellations...